Theta_e
333 335 336 336 336 339 341 343 343 345 346 347 347 347 349 350 350 349 349 352 352 350 350 348 347 347 347 346 346 347 347 346 341 343 345 347 348 350 354 360 362 364 362 358 357 363 354 354 354 353 357 357 356 353 355 353 354 356 357 353 355 344 342 342 344 339 336 332 335 336 338 347 354 342 341 343 344 345 346 348 351 353 354 355 358
334 334 335 336 336 338 339 339 343 341 344 345 345 345 348 349 350 350 350 352 352 351 350 349 348 348 347 346 345 345 345 344 338 339 342 345 347 351 354 358 360 362 364 360 360 354 352 353 353 350 356 354 358 358 356 366 356 353 354 347 349 346 340 344 346 340 334 332 330 333 337 336 346 341 339 343 346 347 347 348 349 351 353 356 358
333 334 335 335 336 337 337 338 340 342 343 344 344 345 347 348 349 350 350 351 352 352 350 348 349 350 348 346 345 343 345 344 339 340 344 342 347 351 353 357 358 359 364 364 357 354 352 353 353 355 358 361 352 349 353 351 352 353 353 351 346 344 346 348 348 335 332 341 339 333 331 327 334 340 344 342 345 345 346 348 350 352 353 354 355
331 333 333 334 336 336 337 338 339 342 343 343 343 344 346 347 347 348 349 351 351 352 353 350 351 350 350 348 347 345 342 344 340 340 342 344 346 351 353 355 357 358 361 365 361 356 355 355 356 358 358 360 350 349 350 351 352 353 350 358 347 340 341 341 359 348 343 337 327 331 331 329 324 327 338 340 341 345 347 348 351 352 351 353 353
331 333 333 334 335 336 337 339 340 341 342 342 343 345 346 346 347 348 348 350 350 353 352 350 353 350 352 351 352 347 347 343 337 336 341 347 347 349 352 355 356 358 358 364 363 356 357 358 356 355 354 357 359 354 353 354 357 352 351 352 347 338 341 346 348 355 345 339 335 332 328 325 326 327 332 334 339 339 344 347 354 351 353 354 353
332 333 334 334 335 336 337 339 340 341 342 343 344 346 346 346 347 348 348 349 350 351 351 353 352 348 345 343 341 340 340 338 333 334 337 347 347 350 357 357 356 358 356 357 361 359 357 358 356 355 355 358 362 359 358 356 354 347 350 351 353 350 342 343 342 348 360 361 343 333 333 326 330 335 330 327 336 339 343 347 347 349 351 351 353
333 334 334 334 335 335 337 337 339 340 342 344 345 348 348 348 348 348 348 349 350 350 352 354 349 347 345 344 341 341 338 340 337 337 340 348 349 351 356 358 356 356 355 355 359 361 358 357 354 354 356 355 362 359 356 353 353 350 358 353 355 358 349 342 345 344 344 347 353 347 351 347 340 334 329 331 326 331 337 342 344 348 351 353 355
333 333 333 335 335 335 336 338 339 341 344 345 346 349 348 348 348 348 349 351 350 350 352 352 348 347 344 343 343 341 340 341 342 339 343 348 349 351 354 357 357 358 354 352 359 360 358 357 355 354 354 355 358 360 354 350 355 358 361 355 358 357 350 346 348 348 341 341 357 347 349 353 344 340 336 333 328 326 329 337 343 347 349 351 354
333 333 333 334 334 335 337 338 340 343 345 345 345 348 350 350 350 349 349 351 351 351 351 350 351 348 345 344 343 345 344 344 346 344 343 349 347 349 352 354 356 357 355 353 359 360 362 358 356 354 353 353 363 358 351 353 352 349 349 348 350 356 355 352 349 345 344 343 341 340 344 344 343 340 339 336 330 327 328 331 334 344 345 347 349
333 334 334 335 335 336 338 340 342 343 345 346 346 347 349 350 350 349 349 350 352 351 352 349 350 351 346 345 343 343 347 346 344 342 341 344 345 346 349 351 354 354 355 355 358 359 360 359 357 356 356 355 364 355 354 353 354 351 352 350 352 351 355 355 349 348 349 346 344 343 341 340 337 337 336 331 330 331 326 329 334 336 334 342 349
332 333 334 335 336 337 338 339 342 343 344 345 345 346 348 349 349 348 349 351 352 351 351 349 350 351 347 346 345 343 345 345 342 343 338 340 342 344 348 350 352 352 353 356 356 358 360 360 358 357 356 361 363 354 352 349 352 350 352 352 353 351 354 353 357 356 353 351 349 345 342 341 338 336 335 336 330 328 329 333 337 342 338 341 348
332 332 333 334 334 336 337 338 341 342 343 344 344 345 348 349 350 348 349 351 352 352 350 349 351 351 349 348 347 346 346 347 343 342 341 339 340 341 346 348 349 350 351 353 354 357 358 358 358 357 357 353 354 353 352 350 352 353 351 349 349 352 354 359 354 351 352 349 347 346 343 342 342 340 340 340 333 332 331 332 338 342 343 344 351
332 332 333 334 334 334 335 337 340 341 342 343 344 345 347 348 350 349 349 351 351 351 350 350 350 351 350 350 349 349 348 348 346 343 344 343 339 340 344 345 347 347 348 351 352 355 356 355 354 352 353 353 352 351 351 353 351 352 351 351 351 351 353 354 352 351 349 347 345 345 345 343 341 339 339 339 339 337 337 335 340 342 337 342 347
332 333 333 333 334 335 335 336 339 341 342 343 344 345 346 349 350 350 350 351 351 350 350 349 350 351 351 350 350 351 349 350 348 346 346 344 341 341 344 345 345 347 348 350 353 355 355 355 355 353 351 351 353 350 350 351 352 350 352 350 349 349 350 353 352 352 350 348 348 347 346 344 341 341 339 339 338 337 336 337 338 340 342 342 345
332 332 333 333 335 335 335 336 338 340 342 343 344 344 345 349 351 350 349 351 351 349 349 349 350 350 350 351 350 351 351 351 350 349 348 346 343 342 343 345 345 346 348 350 354 355 355 354 354 353 352 350 352 352 354 353 356 356 355 350 350 348 349 354 352 353 353 350 348 346 346 345 343 343 340 340 341 341 338 339 339 336 336 339 341
332 331 332 333 334 335 335 336 338 340 341 342 343 344 346 350 351 350 349 350 350 350 349 349 349 350 349 349 350 351 353 353 352 353 349 348 347 340 342 344 345 345 347 351 354 355 354 354 355 353 352 352 351 351 349 350 351 353 352 353 351 355 351 351 350 350 349 348 347 347 346 345 344 343 340 340 341 342 341 342 342 340 336 332 336
332 332 332 332 334 335 336 337 338 340 340 341 343 345 348 350 351 350 350 350 350 351 349 350 350 349 348 349 350 350 351 351 351 351 351 350 349 347 341 342 345 345 346 352 352 354 354 354 353 354 352 351 351 351 350 349 351 352 352 349 350 351 351 347 348 348 348 348 346 346 345 345 343 345 347 342 343 343 342 343 343 340 339 335 333
333 334 334 334 334 335 337 339 340 340 340 341 343 345 349 351 351 350 350 349 350 350 350 350 349 349 349 349 350 351 351 352 352 351 351 349 348 348 348 344 343 346 348 351 352 353 353 359 353 353 352 351 351 352 351 351 351 351 351 350 350 350 349 349 349 349 347 347 349 348 347 344 346 347 346 346 344 343 342 342 342 341 341 337 336
331 332 333 335 335 336 338 339 340 340 341 343 345 346 350 351 351 351 349 350 351 352 351 351 350 350 351 350 351 352 353 353 352 352 351 349 348 347 347 346 344 345 349 351 351 352 352 353 352 351 351 351 350 351 353 352 352 351 352 351 350 349 348 346 346 349 350 350 347 345 345 346 348 348 349 347 348 347 345 344 343 343 342 341 340
331 332 333 335 336 338 338 339 338 339 341 344 346 347 350 352 352 350 348 349 350 351 352 350 351 351 352 353 353 353 354 353 352 351 350 349 349 347 346 346 343 345 346 348 350 351 351 351 351 350 350 350 349 350 352 352 352 351 351 351 350 349 348 347 346 346 348 349 347 345 346 345 346 349 348 350 348 350 349 347 347 346 343 342 342
332 333 333 335 338 341 341 341 340 341 343 343 344 344 347 349 352 353 349 347 349 351 352 352 352 353 354 353 353 353 353 353 352 351 350 349 349 349 347 347 347 341 342 344 345 346 347 348 348 350 349 348 348 349 350 351 350 350 350 350 349 348 347 348 348 347 347 346 346 345 346 348 352 349 350 351 351 348 349 349 350 349 346 344 341
333 334 334 336 341 341 341 341 341 340 341 342 345 347 349 349 352 350 351 349 351 352 354 355 354 354 354 354 354 353 353 352 351 350 350 349 349 348 348 348 346 345 340 340 342 343 344 343 344 346 347 348 348 348 349 350 350 349 349 351 350 348 346 345 345 346 347 348 346 345 347 353 354 350 350 350 348 347 347 348 348 349 347 345 344
336 336 337 339 340 340 341 341 340 340 341 342 344 346 347 348 352 350 349 351 351 352 354 353 354 354 354 355 354 353 352 352 351 350 350 350 349 348 349 348 347 346 345 340 339 341 342 342 343 344 345 346 346 347 348 349 349 349 348 348 350 348 347 346 344 344 345 347 347 347 347 350 355 348 350 349 350 348 350 349 348 349 350 348 347
337 338 339 339 340 341 341 340 340 340 340 341 342 344 347 349 348 348 350 350 350 351 352 352 353 354 354 353 352 352 351 351 350 350 350 350 350 349 349 347 347 347 346 344 340 338 339 341 342 343 344 345 345 345 346 347 347 348 348 348 348 348 348 347 346 346 346 347 347 348 349 352 353 349 347 345 347 346 346 347 347 350 351 350 348
336 338 339 339 339 339 340 340 339 340 341 342 342 344 346 346 347 349 348 349 351 354 352 353 354 353 353 352 351 351 350 350 350 350 350 352 352 351 351 349 346 344 344 343 343 341 338 338 341 343 344 344 345 344 344 345 346 346 347 347 348 348 347 347 346 347 354 349 350 349 350 352 350 348 346 345 346 344 345 346 345 347 349 350 349
335 336 338 337 338 339 339 339 339 340 340 342 342 343 345 346 347 349 348 348 350 351 352 350 350 351 350 350 351 350 350 350 350 350 351 352 352 350 347 348 347 345 344 344 343 342 342 339 338 341 344 345 345 345 344 344 345 345 346 347 348 347 347 347 346 345 347 351 350 350 351 352 351 348 347 346 346 344 344 344 344 345 346 348 346
335 336 337 337 337 338 339 338 339 340 340 341 343 343 345 347 347 349 349 348 347 347 347 348 348 348 348 349 350 349 349 350 350 351 351 351 351 350 349 346 347 346 346 345 345 343 345 342 340 339 341 344 344 344 344 343 344 344 345 345 346 346 347 346 346 345 346 349 351 351 352 353 352 351 349 348 346 345 345 343 345 344 345 345 344
336 335 335 336 336 337 338 337 337 339 340 341 344 345 346 345 344 346 347 348 347 346 344 343 344 347 347 347 348 348 348 349 350 350 350 350 350 349 349 348 348 346 347 348 346 345 344 345 343 343 343 342 341 342 343 343 343 342 343 344 345 346 346 345 345 346 347 348 351 352 352 354 354 353 351 350 348 345 346 344 344 344 344 343 342
335 335 335 335 336 336 336 336 337 338 339 339 342 344 345 343 343 345 345 345 346 344 343 342 345 349 348 347 347 347 348 350 351 349 349 349 348 347 348 347 348 347 347 346 347 347 345 344 344 343 343 344 343 341 343 343 342 342 342 342 343 345 346 345 344 344 346 350 352 353 354 354 357 362 363 360 357 355 347 345 344 344 344 343 341
336 336 336 335 336 336 335 336 337 337 338 339 341 343 344 344 343 347 349 350 348 344 343 345 349 350 351 351 352 351 348 348 348 348 348 348 348 348 349 347 347 346 345 346 346 347 346 345 344 343 343 344 344 345 351 353 352 346 344 343 343 343 345 345 345 344 344 347 352 354 356 365 365 367 368 367 364 362 359 351 346 344 345 342 340
336 337 338 339 339 337 336 337 339 339 338 340 341 345 347 350 352 353 354 354 351 348 350 351 350 349 350 351 350 346 345 345 345 346 348 348 347 348 348 348 348 346 345 345 346 345 345 345 344 343 342 343 344 346 353 345 344 350 350 344 344 343 343 344 345 345 344 346 349 352 353 361 366 368 366 368 368 365 363 360 358 355 353 344 340
337 337 338 340 342 340 340 340 341 341 342 342 345 348 350 352 353 353 354 354 353 352 351 349 349 349 349 350 350 346 342 342 343 344 345 346 348 348 347 347 346 348 348 347 346 345 345 344 345 343 342 343 343 350 340 340 342 341 352 349 344 343 345 344 343 343 344 346 347 349 352 354 358 359 359 361 367 368 364 362 361 359 357 355 351
337 337 338 340 342 343 344 345 345 347 348 349 350 349 350 351 351 352 354 353 352 351 350 349 349 351 350 350 350 349 345 342 342 343 343 344 345 347 345 344 344 345 348 348 347 346 345 345 344 343 343 343 343 347 336 336 336 336 338 351 348 345 343 344 344 344 344 345 346 348 349 353 356 364 363 358 359 363 366 363 361 359 357 356 344
339 339 339 340 342 343 345 346 347 348 348 347 349 349 349 349 348 349 351 351 351 348 348 348 347 348 348 350 351 350 350 347 344 345 345 344 342 344 344 343 344 345 345 347 350 350 351 352 352 350 347 345 344 350 339 334 332 332 334 340 345 346 346 345 345 345 346 347 347 347 347 350 353 357 359 358 357 358 360 359 357 356 353 356 356
335 336 339 340 341 342 343 343 344 344 344 345 345 348 348 348 349 350 351 351 349 347 345 345 345 344 344 344 346 348 347 343 341 344 344 343 344 345 345 345 344 344 343 343 344 345 347 350 350 350 349 351 354 348 338 335 331 329 330 337 338 341 343 344 347 348 348 348 348 349 348 349 351 354 357 357 355 355 356 357 356 353 352 351 352
334 335 340 340 341 341 342 342 343 342 342 343 345 346 348 347 349 350 349 350 349 346 345 344 345 344 344 344 345 344 345 341 340 339 340 341 341 342 342 343 343 342 342 342 342 343 345 347 348 349 349 349 351 342 337 335 332 330 334 342 339 338 339 340 343 345 347 349 350 350 349 348 349 350 353 347 352 355 354 354 354 352 351 350 350
335 338 342 343 343 342 342 343 340 340 340 340 342 343 344 345 346 349 349 350 348 346 344 344 346 345 344 344 344 345 344 344 342 339 339 339 337 337 338 341 340 340 340 340 341 342 344 346 346 346 346 347 348 343 334 331 331 330 337 340 341 340 340 339 341 343 346 347 348 349 349 350 347 344 342 333 337 348 352 351 351 350 350 349 348
338 343 344 344 343 342 343 341 339 338 339 338 339 341 341 342 344 346 349 348 348 347 347 346 347 347 346 345 345 344 343 343 341 339 338 337 337 338 339 343 340 339 339 340 341 342 342 345 345 345 346 346 346 347 337 331 328 328 339 343 340 339 339 337 339 342 344 347 351 356 356 349 343 343 336 332 333 343 347 345 347 347 347 347 347
342 344 343 343 342 342 342 340 339 338 339 338 338 340 340 341 344 345 347 347 347 347 347 348 348 349 348 346 345 343 341 340 338 337 336 336 336 337 338 340 342 340 341 340 343 343 341 340 342 344 351 350 348 347 335 329 327 325 333 342 340 339 338 338 339 342 344 345 346 352 355 351 347 344 332 331 331 339 348 347 347 346 346 345 346
343 345 344 343 344 343 340 339 339 340 342 339 339 340 342 340 343 345 345 345 346 347 348 348 346 346 346 346 344 345 342 340 337 336 336 336 337 338 337 340 341 342 342 341 341 341 339 341 342 343 345 346 345 346 345 331 325 322 325 342 342 340 338 339 341 342 342 342 343 344 348 341 334 332 328 327 326 326 346 351 349 342 345 343 347
342 343 347 343 343 342 340 340 342 344 343 340 340 339 342 345 343 343 344 345 345 345 345 344 343 342 342 341 341 341 341 339 339 338 339 340 339 338 338 341 341 341 340 340 340 340 341 341 342 342 343 343 345 345 345 331 324 321 321 332 340 341 341 341 341 341 341 341 341 342 343 338 326 325 324 322 321 321 330 349 350 342 343 346 343
344 346 345 343 343 342 341 342 341 345 345 342 341 342 343 344 340 340 344 344 345 344 343 342 341 340 339 339 339 340 342 342 340 340 337 334 336 336 335 335 334 334 334 334 334 337 339 338 339 341 342 342 347 349 345 336 327 321 318 319 338 341 342 341 340 339 339 339 340 341 341 337 326 321 320 318 318 318 320 334 343 332 333 333 336
341 343 344 344 342 341 342 342 344 346 344 343 343 344 345 345 339 342 344 345 344 342 341 340 339 338 340 339 340 343 342 341 339 338 333 332 333 334 333 333 332 331 331 330 330 331 331 332 333 335 338 341 341 341 341 340 323 315 318 315 317 331 330 339 340 340 339 339 339 339 341 338 324 318 314 314 316 316 320 323 320 323 326 327 333
342 343 343 343 341 342 342 341 342 342 341 342 344 345 344 340 339 343 344 344 341 340 340 342 344 340 340 339 339 342 338 338 341 338 335 332 331 331 332 332 330 331 329 329 328 331 331 332 333 334 335 338 338 335 335 335 327 316 312 315 314 314 318 332 337 339 340 339 339 339 333 314 311 308 309 311 313 317 322 316 315 319 322 326 332
338 338 340 341 341 341 341 340 339 340 339 339 341 345 344 339 338 342 343 341 340 340 340 340 338 339 339 339 339 337 337 337 338 339 336 334 332 332 331 328 332 329 327 326 327 329 328 330 331 333 334 336 336 331 329 332 330 324 316 315 316 316 317 315 324 329 331 328 320 311 309 311 314 313 313 316 316 315 312 314 314 317 327 328 331
335 335 340 341 342 341 340 340 338 339 339 343 339 343 343 338 340 341 339 340 341 340 339 337 338 338 337 340 338 338 337 336 337 338 337 334 333 334 331 327 325 325 323 325 326 326 324 324 323 324 328 333 335 333 329 328 331 328 323 315 314 318 323 320 321 318 315 313 311 311 313 313 319 321 324 326 326 326 321 319 318 322 326 330 330
333 335 342 342 342 340 339 339 337 339 339 340 340 341 342 342 341 341 341 340 339 339 342 338 336 336 336 335 335 333 333 334 332 331 329 330 330 332 330 326 324 322 322 324 323 324 322 320 321 322 321 325 329 330 332 331 326 324 323 323 321 320 320 320 321 321 321 321 321 319 315 313 314 317 323 323 324 325 325 325 324 325 326 329 330
335 339 343 342 341 339 338 337 336 336 338 338 340 342 342 341 341 342 341 340 341 339 337 336 336 336 337 335 334 345 339 328 325 322 323 324 326 325 322 321 319 319 318 319 319 322 319 319 317 319 319 320 324 323 323 322 326 327 325 323 324 322 318 318 318 320 320 322 320 320 318 321 321 320 319 319 319 320 320 321 320 321 322 325 327
339 340 341 339 339 339 337 338 337 337 338 337 337 341 342 340 340 341 340 340 339 344 338 336 336 336 334 341 337 335 333 326 320 316 312 312 315 320 319 316 315 314 316 318 318 319 319 316 316 318 317 318 321 322 324 313 316 311 319 323 321 319 318 319 319 314 320 320 319 318 319 318 318 318 317 316 317 317 317 317 318 317 317 316 316
335 335 334 333 334 333 333 335 337 336 336 336 334 337 342 342 340 340 340 339 339 339 337 335 336 336 336 334 334 331 328 325 321 318 317 314 311 303 307 318 316 313 307 303 306 317 315 313 315 318 317 317 319 321 308 300 298 300 306 307 308 307 310 317 316 315 319 316 316 315 315 316 316 316 316 315 315 315 315 315 316 316 316 315 315
333 332 332 332 333 335 334 334 335 336 336 338 338 338 339 340 341 340 338 335 334 334 333 331 331 333 337 337 334 330 327 324 323 320 319 317 314 311 299 304 311 310 303 295 295 297 300 307 314 316 313 307 308 304 299 298 298 298 297 298 299 301 304 305 308 317 317 315 314 313 313 314 315 315 314 314 316 315 315 315 314 315 315 315 315
Wind_Speed
7 10 11 9 7 13 13 13 13 13 14 14 14 13 13 12 12 12 10 10 9 8 7 7 7 6 4 6 7 6 5 5 5 5 6 6 6 6 5 4 4 4 3 3 4 4 4 3 3 3 2 2 2 1 0 1 1 1 2 3 1 2 2 3 0 3 2 2 4 3 3 2 1 2 5 5 5 5 5 6 4 6 5 6 4
8 9 10 10 8 13 13 11 13 14 13 14 14 14 13 13 14 12 10 10 10 10 9 8 7 7 7 7 6 5 5 5 5 5 6 6 6 6 5 5 5 4 3 3 3 5 4 3 3 3 2 2 2 1 0 0 1 2 2 3 0 1 0 1 3 1 4 1 0 2 6 4 2 2 5 5 5 5 5 6 5 6 6 5 5
10 11 11 10 12 14 13 10 13 16 16 16 14 13 13 12 12 12 11 10 9 10 9 9 7 7 7 5 7 4 3 5 5 6 6 6 6 6 5 5 5 4 4 3 4 4 3 3 4 4 3 2 1 0 1 1 1 2 2 1 3 1 0 0 2 1 1 1 1 2 2 2 4 4 4 3 4 3 4 5 5 7 6 5 4
11 12 11 12 11 12 10 10 12 13 14 13 12 13 11 10 10 11 11 11 10 10 10 9 9 7 6 6 5 4 4 4 5 4 5 6 6 6 5 5 5 4 4 4 3 4 4 4 3 4 3 2 3 1 1 2 2 2 1 0 1 0 1 1 1 0 3 2 2 1 1 2 1 2 2 3 1 2 2 3 4 7 7 5 5
11 11 11 11 10 12 12 11 12 13 13 13 13 13 10 13 12 12 11 11 10 10 10 8 7 6 4 2 3 2 1 3 5 4 4 7 6 5 6 5 5 5 4 4 4 4 4 4 3 3 3 2 2 1 1 2 1 1 1 1 1 2 0 1 0 0 2 2 5 1 1 3 1 3 2 3 5 3 4 5 6 7 6 5 5
12 13 12 10 10 10 11 13 13 13 13 13 13 13 12 12 12 11 9 9 10 11 9 8 8 8 7 6 6 6 6 5 7 7 5 6 7 7 5 5 6 4 5 4 4 4 5 4 3 3 3 4 3 2 2 2 2 2 1 3 2 1 2 2 2 2 2 1 3 2 3 2 1 2 1 0 2 2 4 5 6 6 5 5 4
11 11 11 13 10 11 11 14 14 14 13 12 11 11 13 13 13 12 11 9 10 9 9 8 8 8 9 8 7 8 7 4 5 6 7 6 6 7 6 5 6 6 5 5 5 5 4 4 4 3 3 4 2 1 1 3 3 2 0 1 1 2 2 1 1 1 3 1 2 1 1 0 3 1 1 2 1 2 2 3 5 5 5 5 5
11 11 13 14 11 14 13 15 15 15 13 12 11 11 14 13 12 12 10 10 9 9 9 8 9 8 8 7 6 7 7 6 5 5 5 6 7 7 6 6 6 6 5 4 5 5 5 4 4 3 3 3 2 3 4 2 1 0 1 0 0 1 2 2 0 0 1 1 2 3 2 0 1 2 3 2 3 1 1 2 4 4 4 5 4
13 11 12 14 13 12 13 13 13 14 14 13 13 12 12 12 12 11 11 10 9 10 10 8 8 9 8 7 6 6 6 6 3 3 5 7 8 6 6 6 6 5 4 5 5 6 5 5 4 4 3 3 2 3 3 3 2 2 1 1 1 1 1 1 1 0 1 1 2 1 2 1 1 2 3 2 2 3 2 0 1 2 4 3 2
12 13 13 12 12 11 13 13 13 14 14 15 14 12 12 12 12 12 11 10 9 11 10 9 8 7 8 7 7 6 5 4 4 4 5 6 8 7 6 6 6 6 4 4 5 5 6 5 5 5 4 4 3 3 3 3 2 2 2 2 1 0 0 2 1 1 1 1 1 1 1 2 2 2 0 2 2 2 5 4 1 4 2 0 1
11 11 12 13 12 12 13 13 14 14 13 13 13 12 12 13 13 14 13 10 10 11 11 11 8 8 8 8 8 8 7 5 5 4 5 4 7 7 7 7 6 6 5 4 6 6 5 5 5 5 4 3 3 3 4 4 4 3 2 1 1 2 2 2 1 1 1 0 1 2 4 3 2 2 5 2 2 2 3 2 2 2 3 4 0
12 11 12 12 10 11 12 12 14 14 13 13 12 11 12 12 13 14 12 11 10 11 11 11 9 9 7 8 8 8 7 6 7 7 6 7 6 7 6 6 6 6 6 5 5 6 5 5 5 4 4 4 4 3 3 3 3 3 2 3 3 3 2 1 1 1 1 1 1 2 3 3 3 4 2 1 6 4 5 5 5 3 3 1 3
12 12 12 12 12 13 12 12 13 14 14 15 14 13 12 13 14 14 13 11 11 11 11 11 9 9 9 9 8 7 7 7 7 7 5 7 6 6 6 7 6 6 6 6 6 7 6 6 5 5 5 4 4 3 3 3 2 2 3 3 3 3 3 3 3 3 3 2 3 2 2 2 4 2 4 5 4 5 7 4 1 2 3 3 2
12 13 13 13 13 13 13 12 13 13 14 15 14 13 12 12 13 15 14 12 10 10 11 10 10 10 9 8 8 7 7 7 6 6 6 5 6 7 7 8 7 8 7 7 7 7 6 6 6 6 5 4 4 3 4 4 3 3 2 2 3 4 3 4 4 4 3 3 2 4 3 3 4 2 6 5 6 6 5 7 6 2 2 2 1
12 12 12 12 13 13 13 11 12 13 14 13 13 13 13 12 13 14 12 11 11 12 10 11 10 9 8 8 8 6 7 6 6 5 5 5 5 7 7 7 8 8 8 7 7 7 7 6 6 5 5 5 4 4 4 3 3 3 3 3 3 3 4 4 4 3 4 4 3 3 4 3 4 2 5 5 6 7 7 7 9 7 2 1 2
11 11 12 12 13 12 11 10 11 12 14 13 14 13 13 13 14 15 15 14 13 11 11 11 10 8 7 8 8 7 6 5 5 4 4 4 5 6 7 7 7 7 7 7 8 7 7 7 7 7 6 6 6 5 5 4 4 3 3 3 4 3 5 4 4 3 4 4 5 4 3 5 4 3 5 6 6 6 6 8 8 9 9 4 3
10 9 8 10 10 10 11 11 10 11 12 13 14 15 15 13 13 13 13 12 12 12 12 10 9 8 8 8 7 7 8 7 7 6 5 4 4 3 5 6 7 6 7 7 8 7 6 7 7 8 7 6 6 6 6 5 5 5 5 4 5 4 4 4 3 3 4 4 4 4 5 5 4 4 2 5 4 3 5 7 8 10 9 7 6
12 13 11 11 11 11 9 11 13 13 13 14 15 14 13 14 14 13 13 14 12 11 11 10 9 9 8 8 8 8 8 8 7 7 5 4 4 3 3 3 6 6 8 8 8 8 7 7 7 7 7 6 7 6 6 6 5 6 5 5 5 4 4 4 3 3 4 3 3 5 4 5 4 3 3 5 5 5 6 6 7 5 7 9 7
6 6 6 6 8 9 10 11 11 11 12 11 11 11 10 11 14 15 16 15 14 11 10 8 9 8 7 9 9 8 7 7 6 6 5 5 5 5 4 4 3 5 6 7 8 8 8 8 7 7 6 7 7 7 6 6 6 6 6 6 5 4 5 5 4 3 4 3 3 4 3 3 3 2 2 2 5 4 5 6 6 5 6 6 9
7 5 4 3 4 7 9 9 5 5 8 11 14 15 7 4 2 4 6 9 10 10 10 9 9 8 7 7 7 7 6 6 6 6 6 7 6 5 5 4 4 3 6 6 8 8 8 8 7 8 8 7 7 8 7 7 6 6 6 6 6 4 5 5 6 5 3 4 4 4 4 4 4 3 2 2 3 6 6 6 6 7 7 6 6
5 5 6 5 4 5 6 9 11 12 12 11 9 8 3 6 4 3 4 5 10 11 11 9 8 8 7 8 8 7 7 6 6 7 7 7 6 6 6 5 3 4 4 6 7 7 8 8 9 8 9 8 8 8 7 7 6 7 6 6 6 5 6 6 5 6 5 5 5 5 5 4 3 3 2 0 0 2 5 5 5 5 6 5 6
4 6 6 6 5 7 10 10 10 10 10 11 9 9 7 8 9 8 3 6 8 9 8 9 8 8 8 9 9 7 7 6 7 7 8 8 7 6 6 5 5 4 4 5 6 7 7 8 8 8 8 9 9 9 9 8 8 7 7 6 7 6 6 7 5 6 6 6 6 6 6 5 3 3 2 2 2 3 4 5 5 6 6 5 4
5 7 7 6 5 7 9 11 10 10 9 10 8 7 5 5 5 9 6 3 5 6 2 6 7 8 9 9 9 8 8 8 9 8 9 8 7 6 5 6 6 5 4 5 6 8 8 9 9 9 9 9 9 9 9 8 9 9 9 8 7 8 8 9 8 8 8 6 6 7 8 5 3 3 3 2 2 3 3 5 5 4 5 5 5
7 6 6 6 7 7 9 11 10 8 8 9 8 7 7 7 8 10 12 13 13 10 8 11 10 10 10 9 9 9 9 9 9 8 9 9 8 7 6 6 6 6 6 5 6 7 7 8 10 10 10 10 9 9 9 9 9 9 9 9 9 9 9 9 9 9 8 7 8 7 7 5 4 5 4 3 2 4 5 5 5 4 5 6 5
8 8 8 8 7 8 8 8 9 8 7 6 8 9 10 7 7 11 11 9 8 9 10 10 11 11 10 9 10 10 10 10 10 8 9 9 8 7 6 6 5 4 3 4 5 6 6 7 9 11 11 11 11 10 10 10 9 9 10 10 10 10 10 10 10 10 9 8 8 8 8 6 5 6 4 4 4 4 5 5 6 5 6 5 5
9 9 9 10 8 6 7 7 7 8 8 8 7 9 9 8 9 8 6 6 8 4 6 6 8 10 10 10 9 9 10 11 10 9 9 8 8 7 6 5 5 6 5 5 6 6 6 7 8 10 10 11 12 11 11 11 11 10 10 10 10 11 11 11 10 10 10 8 8 8 8 7 7 8 7 6 5 6 5 5 5 5 5 4 5
11 10 7 6 6 8 8 7 7 6 7 7 8 7 4 4 5 5 6 8 8 7 5 6 5 10 9 10 10 10 9 9 9 8 6 6 7 7 7 7 6 6 6 6 7 8 7 5 6 8 9 10 11 11 11 11 11 10 10 11 11 11 11 10 10 10 10 9 9 8 8 8 9 8 8 7 7 6 6 6 7 6 5 6 6
7 7 9 9 7 6 7 7 5 6 5 5 6 7 7 7 7 5 5 7 7 5 4 6 8 8 10 10 10 9 8 8 8 7 6 6 6 7 7 7 5 6 6 6 7 7 6 4 4 4 4 6 7 9 10 11 10 10 9 9 10 11 11 11 10 10 9 9 9 9 8 9 9 9 8 8 8 8 6 7 6 5 6 6 6
8 10 9 8 7 6 5 5 6 5 5 5 5 5 4 4 5 7 8 9 7 7 8 11 13 10 8 8 8 7 7 7 7 7 7 7 7 7 7 7 7 7 7 8 7 7 6 6 5 5 4 4 6 8 8 9 10 10 9 10 10 10 10 10 10 10 9 8 8 8 9 8 9 11 14 11 11 9 8 8 7 6 7 7 7
9 8 9 9 9 7 7 7 6 7 6 6 5 6 7 7 7 8 7 7 8 10 14 14 10 7 6 6 6 6 7 7 7 8 8 7 6 6 5 4 5 6 7 6 6 6 6 7 6 6 6 5 6 5 8 14 12 9 9 9 9 10 10 10 10 9 8 8 8 8 8 13 14 15 15 15 15 15 14 11 10 9 9 8 7
8 7 7 8 9 8 7 8 9 9 9 8 8 7 7 8 8 7 8 9 11 13 10 8 7 5 5 5 6 6 6 7 6 4 4 6 6 6 6 5 5 5 6 5 5 6 6 6 6 6 6 6 6 5 9 12 13 13 8 7 8 9 9 10 10 10 9 9 8 8 8 11 13 12 12 16 15 16 17 16 15 16 14 12 9
9 8 8 8 9 9 9 9 9 9 8 7 7 6 6 7 5 6 6 6 5 5 5 4 3 3 4 5 6 6 5 5 4 5 6 5 6 6 5 4 4 5 5 5 6 7 7 6 5 5 6 7 6 8 12 13 14 14 12 8 7 7 7 8 9 10 9 9 9 9 8 7 8 9 9 10 13 17 18 18 17 16 16 18 16
9 9 9 10 10 11 11 9 8 7 7 7 8 7 7 6 6 3 3 5 5 5 4 4 3 4 4 5 5 7 7 6 6 6 5 6 5 5 5 4 6 6 3 4 6 6 7 6 6 7 8 7 7 9 11 13 13 12 12 9 6 7 7 8 8 9 9 9 9 8 8 7 7 12 11 9 9 10 16 18 17 18 18 19 17
9 9 10 9 8 7 9 9 8 6 5 5 5 7 5 4 5 1 3 3 4 3 3 3 3 3 3 3 4 5 7 6 4 3 4 3 2 5 6 4 4 3 2 2 3 4 4 4 5 5 6 6 7 9 12 13 13 13 13 9 6 7 7 8 8 8 7 8 9 9 9 8 8 8 9 9 9 9 9 10 11 10 11 14 17
9 8 8 8 8 7 6 6 6 7 6 5 3 3 4 4 5 5 5 5 4 4 4 3 3 3 3 3 3 3 4 5 3 1 4 5 5 7 7 6 5 4 2 3 4 4 4 4 4 3 2 3 3 3 5 8 10 10 8 5 5 4 5 5 6 7 8 8 9 9 10 10 9 8 9 12 11 10 10 10 10 11 12 11 12
10 11 9 9 9 10 10 8 5 7 6 6 6 5 6 6 5 6 5 5 5 5 5 4 4 4 4 4 4 4 4 7 7 6 6 6 5 6 6 6 6 6 6 5 6 6 8 6 4 3 3 5 5 6 6 4 1 2 5 3 3 3 3 3 5 5 5 6 6 7 8 9 10 13 15 18 16 12 11 11 12 12 11 10 11
9 9 10 9 9 8 7 7 6 7 7 7 6 6 6 5 5 5 5 5 5 6 6 6 5 5 5 5 5 5 4 6 9 11 11 10 8 8 8 6 6 6 6 6 7 7 7 5 3 3 3 4 5 6 7 6 4 4 3 2 2 4 5 7 7 6 6 5 5 5 6 8 3 1 5 9 13 13 11 13 10 9 10 10 11
7 5 6 6 5 6 7 9 9 8 8 6 7 6 7 6 6 5 5 5 5 6 6 6 6 6 6 6 6 6 5 4 4 3 3 3 4 5 7 9 9 9 9 9 8 6 3 2 3 3 3 4 5 6 8 9 9 8 5 3 3 1 1 7 11 10 7 6 6 10 10 7 8 10 14 18 17 15 9 8 12 13 12 11 11
11 11 10 8 8 9 9 7 8 8 7 7 7 7 7 6 5 4 5 5 6 6 5 6 6 6 6 6 5 5 4 4 3 3 2 2 3 3 2 2 3 3 3 2 1 2 2 2 3 3 7 6 5 6 6 7 8 8 6 2 4 5 3 7 9 10 7 4 4 7 12 12 10 13 19 20 17 14 13 13 14 14 13 13 13
8 8 10 9 8 8 7 7 7 7 7 6 5 5 5 5 5 4 5 5 5 6 5 4 3 3 3 3 3 3 3 3 3 2 2 3 2 1 2 2 2 2 2 2 2 1 3 3 3 4 5 5 6 6 7 9 9 10 10 6 4 6 9 11 9 7 5 6 6 5 7 13 15 16 18 18 16 17 14 13 11 11 12 13 12
10 9 8 8 8 9 10 9 7 5 6 5 5 4 4 3 3 4 5 5 4 3 4 4 4 4 3 3 3 3 3 3 3 3 3 2 3 3 3 3 3 3 3 2 2 2 3 4 4 5 5 6 6 6 7 9 10 9 8 7 5 6 6 7 7 6 7 7 8 8 7 10 15 16 17 17 17 16 17 14 10 7 11 16 9
7 10 9 8 7 6 7 5 4 5 5 4 4 4 3 4 4 4 4 4 5 5 6 6 6 5 4 3 3 3 3 4 3 4 4 3 2 2 3 3 2 2 1 1 1 2 3 4 4 5 5 6 7 8 4 6 8 9 7 7 5 6 7 6 7 6 6 7 7 6 6 8 11 15 16 16 17 14 12 8 9 17 22 16 9
8 7 7 9 7 7 7 6 5 5 5 4 5 5 4 4 5 4 5 6 6 6 6 6 5 4 4 4 3 3 3 3 2 2 2 1 0 1 2 2 2 1 1 1 3 3 3 3 4 4 4 5 5 2 2 2 7 6 3 4 8 7 8 6 6 7 7 6 4 4 6 9 12 13 12 14 15 13 4 10 15 18 20 17 13
9 11 9 8 7 6 6 5 5 5 6 5 6 5 4 5 5 5 5 5 5 5 5 5 4 4 4 3 3 3 3 3 3 3 2 1 0 0 0 1 3 3 2 1 2 2 3 3 4 5 4 3 0 3 4 4 3 5 6 4 5 8 9 6 6 6 5 5 5 4 3 7 9 11 11 10 8 5 10 16 17 19 19 14 7
11 10 8 7 8 8 7 5 4 4 4 4 5 5 4 4 4 4 5 5 4 4 4 3 3 2 2 2 2 1 1 2 2 2 2 1 0 0 0 1 3 4 3 3 1 1 2 2 2 3 4 2 1 2 2 4 5 5 5 5 5 6 8 7 5 6 6 6 6 7 7 6 7 8 8 8 5 9 16 17 15 17 13 7 10
8 7 7 7 7 7 7 6 3 3 3 3 3 4 4 3 3 3 4 4 4 4 3 3 1 0 1 2 2 2 2 1 3 1 1 1 1 2 3 2 4 4 3 2 1 2 2 2 2 2 4 3 0 1 1 2 3 3 3 4 4 5 5 4 4 3 5 7 6 3 3 2 2 2 3 3 4 5 9 11 13 12 7 9 9
10 9 9 8 7 6 5 4 4 0 1 2 3 3 4 5 4 4 4 4 3 3 1 1 1 1 1 1 2 2 2 4 3 5 5 5 4 5 4 3 4 4 2 2 1 1 2 2 2 3 3 4 2 2 1 1 1 1 1 1 2 1 1 2 3 4 4 3 5 6 4 5 6 7 7 5 5 4 5 8 3 5 7 8 8
7 8 9 7 6 4 4 3 3 2 3 4 5 4 4 4 4 4 4 3 3 1 1 0 1 1 3 3 0 2 2 5 5 5 5 5 5 4 5 4 3 2 2 1 0 1 2 1 0 1 2 2 2 1 1 2 2 1 2 2 1 1 1 1 1 2 3 3 3 4 4 4 4 4 4 4 4 4 4 4 4 2 1 1 5
9 9 10 10 8 7 6 6 5 4 3 3 4 3 3 4 4 4 5 4 2 1 2 2 3 4 4 3 5 5 3 4 5 5 5 4 3 3 4 3 1 1 2 3 4 3 3 2 1 1 1 1 0 2 1 2 4 6 4 3 2 0 1 1 3 2 3 3 3 4 4 5 4 4 4 4 4 4 4 4 4 4 5 6 6
15 15 16 15 12 11 10 9 6 3 3 2 3 0 2 2 3 4 5 5 3 4 4 6 9 9 6 4 4 4 4 4 4 5 4 4 7 5 4 2 2 2 1 2 3 3 4 4 3 3 3 3 3 2 4 5 5 4 1 4 5 5 4 4 2 3 2 3 3 3 3 3 4 4 4 4 4 3 4 4 4 5 6 7 8
13 14 12 11 9 9 10 6 2 1 3 6 9 10 9 10 9 9 10 11 10 6 7 7 7 7 8 3 2 2 2 4 5 5 5 5 4 4 8 6 4 5 3 2 1 2 4 7 5 3 3 4 5 5 3 4 3 1 4 7 7 8 7 4 2 1 2 2 2 2 3 3 3 3 3 3 3 3 3 4 4 4 5 7 9
Wind_Direction
171 161 150 161 165 148 158 157 159 163 166 166 166 165 164 166 167 174 176 172 169 169 176 180 186 195 212 207 214 209 187 195 193 199 193 193 189 182 186 182 168 154 148 135 126 111 118 134 116 96 106 102 110 143 172 277 278 262 301 292 282 352 348 10 20 96 64 6 355 30 46 19 49 133 111 121 123 123 107 97 90 97 88 82 75
154 152 159 158 159 150 154 156 158 161 169 169 170 167 167 166 170 172 171 174 175 174 177 183 186 191 187 200 206 205 183 187 198 199 197 192 187 182 183 181 166 159 150 142 128 125 134 150 154 143 133 125 120 146 155 224 3 7 359 334 279 61 217 317 303 57 14 115 51 342 347 344 19 59 99 115 113 108 108 110 113 95 82 77 69
163 163 163 160 156 156 158 155 160 162 169 174 172 165 167 168 170 169 171 172 178 176 174 183 187 187 187 198 202 197 184 192 192 194 190 173 184 184 184 174 166 165 160 150 140 139 158 178 174 152 150 157 124 102 18 357 24 8 286 263 310 1 187 280 327 147 153 119 89 76 352 23 332 11 29 66 102 119 118 117 110 96 93 93 96
169 168 164 162 156 158 155 156 159 159 167 169 167 166 170 171 169 170 171 172 175 179 181 185 183 182 193 198 202 185 183 196 196 206 171 162 181 186 185 173 172 178 173 164 143 150 168 202 174 150 153 139 154 163 337 316 24 334 300 148 164 18 8 304 337 307 126 134 1 77 205 115 16 322 355 333 358 72 64 91 100 101 99 93 70
168 167 165 163 161 159 161 159 159 160 164 167 165 167 174 174 173 171 171 174 176 179 179 177 173 171 169 157 151 135 59 157 180 211 182 168 171 178 190 177 176 179 179 163 154 167 185 188 168 160 150 150 144 157 249 259 262 240 219 103 180 148 193 276 314 53 107 156 138 90 9 30 216 250 50 13 346 3 26 34 52 73 72 73 82
170 169 168 164 167 164 157 160 164 166 168 170 165 168 168 172 170 170 171 172 178 179 171 163 175 175 173 170 176 185 194 176 184 193 182 169 178 183 175 179 176 181 180 169 163 166 188 186 163 161 157 165 191 195 238 285 262 210 207 158 126 147 146 82 7 346 57 111 136 158 163 168 217 263 70 346 317 13 27 50 46 57 81 81 83
176 166 166 165 173 172 169 166 168 169 173 167 161 163 166 171 172 171 171 175 178 177 167 162 172 180 187 189 183 182 183 216 193 187 172 182 169 174 178 177 176 179 187 172 170 177 177 182 171 176 171 174 191 190 256 239 213 180 313 123 152 110 88 76 85 322 356 2 20 81 110 161 148 114 244 131 3 315 40 68 58 55 76 85 89
178 173 171 180 175 176 178 174 170 172 168 165 160 162 166 171 172 173 174 174 178 169 170 171 174 180 184 191 185 183 178 196 192 187 185 163 169 176 175 178 179 182 188 178 174 175 173 185 171 173 179 193 194 197 201 204 126 15 161 216 192 110 115 119 26 319 127 278 352 346 360 10 212 241 186 171 174 174 280 9 82 66 67 79 100
180 178 178 181 180 178 177 179 175 166 165 169 168 167 167 170 172 173 176 175 177 172 173 179 177 180 183 183 190 195 174 192 186 162 175 169 168 175 178 183 181 187 189 178 176 177 179 182 176 176 189 202 194 181 179 189 173 163 195 266 162 82 130 156 122 169 142 231 4 335 12 316 284 240 232 145 145 119 278 333 338 48 73 54 69
186 185 184 185 184 176 181 171 169 170 172 171 170 165 165 167 172 176 179 178 176 179 178 180 182 177 181 188 191 198 187 184 175 166 178 178 170 176 185 184 184 185 186 178 173 182 179 181 178 187 196 191 199 189 190 168 173 185 205 215 199 258 312 153 157 195 180 225 178 204 356 328 5 349 10 96 60 105 168 200 143 131 125 321 86
188 189 189 190 187 178 177 173 170 172 172 171 170 171 168 170 173 179 183 178 177 182 180 184 183 183 187 191 194 196 198 180 182 178 173 193 179 181 183 189 186 185 175 184 176 178 182 181 183 195 192 189 182 172 178 183 194 199 206 216 233 221 231 227 240 152 177 175 260 190 236 228 210 238 270 296 153 131 87 102 115 115 145 129 45
188 184 190 190 184 183 177 176 166 172 173 173 174 173 174 173 174 180 182 179 180 183 184 185 184 189 194 192 197 200 192 190 188 188 177 185 191 183 188 182 191 180 178 178 182 179 176 187 188 185 195 202 205 199 187 191 197 183 190 207 239 246 239 217 220 279 258 244 277 212 229 213 220 229 265 166 152 153 137 152 150 127 85 92 111
186 187 186 187 185 183 178 178 165 173 175 175 175 177 177 176 174 177 185 181 181 181 186 186 186 190 191 194 200 196 195 191 188 191 178 177 188 187 178 190 190 182 188 183 193 183 176 179 188 182 197 209 213 214 221 200 187 186 199 216 232 249 234 221 218 233 223 226 261 240 226 238 249 237 120 147 134 125 133 128 156 102 142 142 122
188 190 186 186 185 184 180 175 173 177 175 175 174 177 178 177 174 179 185 181 177 182 186 185 193 193 191 192 196 194 197 193 191 189 180 173 176 188 187 190 189 193 188 193 192 189 180 186 183 189 192 200 201 207 221 217 180 201 194 207 230 238 249 230 217 227 233 243 225 269 281 285 282 231 162 151 144 133 154 151 144 71 86 135 104
190 190 189 186 186 184 184 174 177 177 175 175 173 176 178 175 173 181 179 180 179 183 184 188 193 196 194 196 195 197 197 195 199 192 176 170 177 184 192 194 192 197 192 194 189 190 187 183 188 188 197 205 208 210 220 220 206 200 208 218 231 243 241 237 237 229 249 256 259 235 249 254 264 255 151 192 166 172 157 154 142 127 83 144 181
190 190 191 189 187 184 183 178 177 178 176 175 173 175 181 179 175 179 179 180 182 182 187 189 194 194 197 197 203 201 204 199 202 198 185 185 172 178 190 196 200 193 194 186 195 189 185 188 192 199 199 204 209 210 213 215 220 216 238 236 249 233 227 222 232 226 250 253 251 251 251 270 271 267 184 192 198 166 153 158 155 153 147 177 211
191 188 186 191 192 185 182 181 176 176 177 178 177 177 179 174 176 177 180 179 182 185 186 189 189 193 201 203 199 204 205 205 207 206 198 193 187 178 180 196 201 195 190 190 191 194 190 187 193 202 201 203 206 211 212 215 214 223 227 233 244 253 251 237 235 217 240 254 268 267 255 259 264 262 171 203 214 154 158 165 168 168 172 154 170
191 194 190 185 184 181 179 181 179 178 178 181 181 178 174 173 175 177 175 180 186 183 186 184 185 195 200 204 206 203 203 208 207 214 205 190 207 198 195 185 199 198 196 191 188 191 193 193 196 203 205 203 208 208 209 212 209 220 225 228 234 235 241 253 241 222 237 242 255 269 268 265 263 290 284 182 191 173 161 175 186 181 156 164 168
191 182 171 171 174 174 174 181 181 179 173 175 175 172 163 174 179 179 180 183 180 181 183 181 184 192 197 202 204 205 206 203 204 206 203 201 211 214 208 214 206 195 195 190 189 192 191 198 196 207 208 210 210 212 207 209 202 211 220 228 235 227 235 250 252 225 240 223 246 261 281 267 251 240 257 144 184 178 186 187 191 165 187 174 171
180 166 145 138 161 166 167 162 131 88 58 38 29 15 19 58 144 200 200 175 171 178 176 182 188 191 194 196 203 205 203 202 199 202 208 211 208 209 218 205 216 203 193 184 187 189 192 196 202 208 212 214 212 216 210 210 202 207 213 220 229 220 233 242 256 249 235 228 232 240 243 250 255 226 219 223 187 183 187 184 178 184 195 190 163
163 143 137 142 133 123 112 95 93 93 93 93 97 93 75 110 177 195 242 217 190 182 180 179 180 193 190 194 200 199 206 204 206 203 210 213 208 203 208 214 194 212 198 188 188 192 193 201 205 208 213 212 214 216 214 211 206 213 216 217 224 218 225 240 240 257 255 247 240 239 240 226 211 195 195 149 31 134 170 179 181 178 187 179 163
143 132 133 134 116 111 104 102 101 109 119 128 136 140 167 173 169 137 138 245 238 194 172 171 181 187 187 191 199 199 201 204 209 210 212 212 209 202 201 204 213 215 199 202 202 202 203 206 210 212 212 213 212 214 212 206 208 213 221 217 223 221 223 232 229 237 246 244 245 241 240 233 194 190 163 129 133 125 144 155 169 177 185 185 182
133 123 129 133 124 113 117 117 122 129 138 144 149 146 163 187 123 100 102 243 287 296 177 194 186 186 189 189 193 195 196 200 207 209 212 214 213 208 197 205 214 222 215 212 209 212 212 210 215 215 213 213 210 213 212 208 210 210 214 219 219 218 222 228 228 233 236 235 239 237 237 222 176 167 183 151 134 136 142 153 165 170 172 174 184
90 90 99 108 112 120 123 123 125 139 151 156 152 136 160 171 135 138 160 187 189 177 192 205 202 197 196 189 192 193 194 199 204 208 210 210 210 210 206 210 215 222 229 221 222 221 216 214 215 216 216 218 213 210 212 212 213 212 214 218 220 221 223 224 226 229 230 226 227 229 230 210 189 191 195 163 158 147 152 159 168 177 173 173 171
108 114 125 127 131 137 141 137 141 151 148 142 143 155 173 168 156 174 184 183 180 186 201 198 190 197 200 194 192 188 191 198 204 207 209 206 207 205 199 197 185 207 240 250 230 220 221 209 214 215 215 216 216 212 214 218 218 217 216 218 220 222 224 224 223 223 222 215 214 215 215 202 190 200 199 178 176 164 173 167 174 184 178 172 160
127 129 136 149 154 146 144 154 160 158 158 154 158 167 173 170 191 188 148 165 199 205 230 218 198 196 201 196 191 188 192 196 200 206 209 203 200 195 190 194 197 206 225 240 255 243 226 221 216 216 215 213 211 211 211 215 218 218 217 219 221 221 223 224 225 223 222 213 210 211 211 199 195 201 203 189 184 177 173 181 182 187 178 159 161
145 144 143 135 146 159 166 171 168 167 166 162 159 170 174 179 195 194 167 184 197 190 219 241 221 200 195 196 193 193 191 193 198 201 197 197 201 201 201 208 202 204 211 234 245 246 230 212 227 227 214 208 209 210 211 213 214 213 214 216 220 223 225 226 226 224 219 214 210 210 209 202 202 204 199 188 185 180 181 189 190 186 175 167 165
134 135 147 158 164 161 169 168 162 179 178 162 165 170 182 183 190 188 167 189 191 175 225 246 240 212 190 190 193 192 190 191 197 197 189 185 191 198 203 202 198 205 217 226 234 234 225 206 197 209 227 222 213 213 213 215 214 213 209 212 216 219 223 225 227 222 217 212 210 211 211 207 206 204 199 192 178 183 183 186 193 178 173 170 170
155 156 159 158 169 174 173 165 180 180 184 180 169 173 193 189 185 185 183 184 172 175 202 223 219 195 187 182 182 186 183 182 182 186 192 191 192 198 198 201 203 209 218 221 221 225 237 238 231 220 230 234 226 224 221 218 219 221 218 218 213 215 217 221 224 224 218 214 213 212 212 210 210 208 204 193 189 180 174 185 191 183 180 178 172
174 171 161 168 174 176 174 169 185 192 193 191 188 189 193 200 202 202 191 182 162 192 204 209 198 174 163 164 155 148 154 154 164 178 182 186 197 203 211 223 224 220 222 224 232 236 236 233 230 232 231 232 231 225 223 223 218 216 220 223 219 216 215 216 218 221 223 218 217 212 213 210 209 210 210 204 195 190 187 182 181 184 181 181 179
174 167 164 162 174 180 178 175 185 194 196 195 197 196 198 202 203 194 181 179 172 191 194 186 184 166 150 144 133 144 154 167 171 159 163 184 205 205 208 215 230 239 243 247 245 243 241 239 236 234 235 234 235 225 223 217 212 212 210 218 218 218 212 210 212 212 215 218 221 218 217 216 213 212 212 210 200 195 196 195 187 186 182 177 178
168 169 164 164 165 172 180 186 190 193 192 193 193 196 189 196 187 186 178 162 168 174 177 183 163 142 153 155 146 152 168 199 196 175 185 202 197 202 208 212 232 245 249 247 250 246 243 243 244 247 246 246 241 237 229 224 218 215 212 210 211 216 218 219 216 213 215 214 215 216 217 216 215 212 210 212 209 201 200 200 196 195 194 188 179
167 168 174 173 172 175 177 182 188 187 183 183 176 172 183 182 180 187 147 162 174 171 166 174 176 176 174 169 165 164 175 187 210 230 203 179 206 222 212 198 219 231 234 231 233 240 245 244 243 247 249 247 251 248 244 243 239 230 223 218 219 214 212 223 223 218 214 211 211 213 217 215 217 214 208 208 205 207 205 202 201 200 204 201 197
170 173 177 180 177 174 176 175 172 170 159 154 167 167 168 143 135 187 206 187 174 162 164 175 168 171 168 175 184 183 175 177 186 234 272 272 220 226 230 214 201 208 230 259 258 236 238 239 236 238 247 253 251 248 240 238 240 239 233 223 226 220 220 219 222 225 222 216 210 210 211 216 215 213 210 207 202 203 202 206 207 201 207 214 206
173 174 176 180 178 170 157 146 145 144 142 138 149 155 145 148 163 180 202 189 174 157 166 166 168 148 135 143 159 179 134 91 72 320 305 280 288 295 291 291 295 290 291 280 284 296 279 259 261 258 270 273 261 291 292 261 253 256 264 245 243 248 245 239 234 226 222 221 219 214 212 214 212 213 212 201 199 200 199 203 203 203 205 208 208
184 174 177 174 174 170 167 161 148 137 148 154 160 163 156 174 178 180 182 178 172 170 183 181 174 168 170 180 189 198 155 138 158 168 189 215 235 258 277 293 305 309 313 314 302 277 267 265 267 281 289 285 284 302 300 318 320 178 193 185 208 236 263 282 284 272 251 240 229 223 213 211 207 213 218 206 201 197 197 202 204 209 210 210 215
177 171 176 178 172 164 154 145 149 155 155 165 165 160 159 164 178 189 177 177 171 175 184 193 195 185 189 192 196 206 207 170 165 174 185 179 163 178 192 204 210 227 231 223 228 231 236 248 276 273 275 278 284 290 282 263 240 218 201 198 132 77 28 350 317 300 286 266 246 228 224 232 239 14 333 284 240 208 207 204 205 217 221 218 219
145 145 154 161 159 130 146 152 157 169 175 169 169 164 161 168 181 181 175 179 181 196 192 191 198 193 192 192 195 192 190 183 174 181 178 173 162 172 176 184 188 197 201 202 208 220 230 224 230 247 232 257 270 272 266 266 265 254 246 236 89 30 209 258 267 261 250 248 244 236 227 205 182 211 216 223 223 218 208 197 210 217 220 224 229
156 159 162 166 162 153 150 153 159 169 184 174 168 161 157 169 177 180 175 178 192 198 192 191 195 188 182 182 179 174 173 167 171 175 163 172 192 204 208 195 211 202 222 222 214 238 263 264 252 249 276 274 268 266 253 248 252 250 243 228 171 216 232 253 251 255 254 252 257 254 240 218 201 211 220 225 222 210 215 213 213 212 213 215 223
158 159 163 160 141 126 133 155 174 184 173 172 164 158 163 160 181 169 172 188 195 196 195 185 165 160 160 160 155 155 150 153 162 159 164 194 199 203 223 207 215 199 225 249 259 238 239 257 259 261 261 258 259 263 260 251 245 242 236 237 206 184 200 219 232 240 255 255 251 250 236 221 214 215 220 224 223 212 217 220 215 207 217 225 224
158 157 147 143 150 150 157 169 185 171 164 167 159 146 163 166 162 159 184 189 175 146 134 126 115 110 107 109 112 125 130 141 151 162 176 176 179 192 184 174 186 192 196 211 219 225 230 246 251 247 246 255 247 258 268 261 260 254 239 218 228 218 218 219 221 224 226 237 239 235 236 226 221 226 230 233 233 226 222 226 224 215 216 229 213
146 145 148 149 149 141 139 150 172 156 158 160 151 151 160 158 144 155 175 151 136 128 121 120 120 122 123 120 116 101 117 144 150 138 150 159 167 148 133 132 118 120 144 206 231 233 225 247 255 257 253 256 257 253 268 272 277 281 277 233 235 236 227 229 243 240 236 243 244 244 242 247 242 238 241 240 242 243 251 258 231 220 223 215 179
145 151 160 149 148 148 151 155 157 157 151 154 150 155 163 158 142 167 153 144 135 132 129 129 131 131 137 145 158 163 150 134 150 154 133 157 284 116 106 103 102 85 54 356 329 318 299 279 268 259 257 257 263 294 7 25 40 25 358 256 256 272 279 262 257 261 259 256 252 254 258 258 249 243 236 246 254 255 258 225 235 245 237 214 199
159 160 161 150 141 138 140 148 147 141 139 144 143 154 162 144 161 166 140 132 128 130 132 133 137 144 144 161 181 187 166 179 168 167 161 175 161 92 92 126 113 104 89 24 330 308 300 297 297 297 287 273 24 84 54 70 63 41 20 352 307 284 291 287 293 289 301 295 297 300 340 355 329 303 290 277 276 234 232 245 227 233 245 239 198
161 164 155 144 141 142 139 142 145 142 131 136 142 149 147 145 174 143 134 129 126 120 119 123 136 154 144 200 234 219 194 194 220 194 215 206 130 71 250 11 87 75 79 75 36 31 25 335 338 327 316 304 72 75 72 79 88 71 49 31 2 340 329 336 314 304 320 319 317 314 310 299 295 293 286 276 251 205 225 240 238 233 227 201 205
146 137 140 132 129 135 139 143 157 167 146 132 143 132 128 152 131 111 112 117 112 111 112 127 113 147 187 227 264 310 338 275 255 247 77 90 187 187 143 78 77 85 79 79 38 69 63 54 37 9 8 347 30 142 124 98 85 76 53 45 56 39 19 15 343 313 312 322 332 342 357 314 278 278 264 276 271 264 258 252 243 240 224 219 208
154 147 135 133 137 137 139 135 143 247 100 89 81 74 110 121 120 113 103 102 103 107 94 62 63 44 41 142 198 260 301 25 29 66 64 49 46 80 87 73 72 72 58 47 35 78 78 50 29 10 354 340 38 56 69 101 111 34 15 41 15 50 71 3 341 333 336 348 25 35 38 47 54 39 39 38 27 320 294 283 295 226 226 223 221
135 127 126 119 104 89 75 76 70 31 39 54 55 72 104 110 109 109 100 89 88 75 78 18 350 345 344 337 350 285 49 81 48 34 45 44 46 73 85 77 76 86 97 121 203 140 116 123 8 331 333 326 2 9 5 336 315 240 212 218 232 279 28 1 3 1 3 14 20 12 9 12 25 29 24 26 21 22 0 350 359 4 29 112 107
60 48 49 49 50 50 46 44 28 12 36 34 52 80 106 126 113 115 113 100 86 55 38 3 344 347 319 348 26 23 59 96 93 65 53 36 3 16 103 109 67 249 224 200 186 170 146 168 188 206 232 274 269 281 290 347 291 290 267 208 222 214 112 84 56 44 48 24 18 20 20 25 32 46 43 31 32 37 39 19 30 37 52 62 66
79 81 81 76 71 68 50 24 350 350 19 29 42 48 122 84 101 112 107 99 71 34 23 8 5 352 354 29 33 56 75 105 119 128 116 72 46 31 357 156 160 166 360 329 266 192 172 166 181 200 195 212 233 266 317 322 313 303 110 94 114 110 120 118 101 85 93 74 48 50 34 33 34 37 47 47 48 49 55 50 46 65 75 82 91
87 86 86 97 113 125 131 143 195 278 59 59 52 41 44 40 45 47 54 52 49 33 15 3 10 342 329 343 83 98 113 136 145 148 151 142 142 48 19 34 124 166 182 206 218 164 175 189 194 189 195 234 258 285 289 304 312 105 105 118 122 124 115 110 18 62 71 57 59 59 43 41 51 47 59 57 59 66 80 84 72 70 86 105 113